Location: Newark
(35.5300°N, 14.3000°E)
Time: 02:11:00
(UTC+00:00)

Explorer 11/Cluster Stage 4 - Pass Details

Date: 15 November 2019
Orbit: 467 x 1259 km, 28.8° (Epoch: 13 December)

Event Time Altitude Azimuth Distance (km) Brightness Sun altitude
Rises 18:46:48 0° 214° (SW) 3,356 10.2 -34.7°
Reaches altitude 10° 18:49:46 10° 198° (SSW) 2,569 9.3 -35.3°
Enters shadow 18:50:14 12° 195° (SSW) 2,468 9.2 -35.4°
